CW4647 Weather Reports


time (UTC)temp
F
wind
direction
speed
knots
gust
knots
rain 1hr
in
rain 24hr
in
rain mn
in
humidity
%
barometer
mb
20260502194600 80 71 7.0 11.3 0.00 0.00 0.00 76 1010.1
20260502194055 80 25 5.2 9.6 0.00 0.00 0.00 76 1010.1
20260502193556 80 76 4.3 10.4 0.00 0.00 0.00 76 1010.1
20260502193119 80 63 5.2 10.4 0.00 0.00 0.00 75 1010.0
20260502192600 80 65 5.2 10.4 0.00 0.00 0.00 75 1010.0
20260502192056 80 60 6.1 13.0 0.00 0.00 0.00 75 1010.0
20260502191557 80 52 6.1 13.9 0.00 0.00 0.00 75 1010.0
20260502191055 80 70 7.0 13.9 0.00 0.00 0.00 76 1009.9
20260502190557 80 74 7.0 13.9 0.00 0.00 0.00 76 1009.9
20260502190056 80 69 6.1 11.3 0.00 0.00 0.00 76 1009.8
20260502185555 80 63 7.0 11.3 0.00 0.00 0.00 76 1009.9
20260502185057 80 70 7.8 11.3 0.00 0.00 0.00 76 1009.7
20260502184603 80 69 6.1 11.3 0.00 0.00 0.00 76 1009.7
20260502184057 80 59 5.2 11.3 0.00 0.00 0.00 76 1009.7
20260502183555 80 67 7.0 11.3 0.00 0.00 0.00 76 1009.7
20260502183101 80 96 6.1 10.4 0.00 0.00 0.00 76 1009.8
20260502182559 80 61 3.5 8.7 0.00 0.00 0.00 76 1009.8
20260502182055 80 71 4.3 10.4 0.00 0.00 0.00 76 1009.8
20260502181558 80 40 5.2 10.4 0.00 0.00 0.00 75 1009.7
20260502181055 80 59 5.2 10.4 0.00 0.00 0.00 75 1009.8
20260502180555 80 73 4.3 10.4 0.00 0.00 0.00 75 1009.8
20260502164055 80 59 7.0 12.2 0.00 0.00 0.00 76 1009.9
20260502163556 80 59 7.0 12.2 0.00 0.00 0.00 76 1009.9
20260502163100 80 73 6.1 11.3 0.00 0.00 0.00 76 1009.9
20260502162600 80 69 7.0 11.3 0.00 0.00 0.00 76 1009.9
20260502162057 80 55 7.0 12.2 0.00 0.00 0.00 76 1009.9
20260502161558 80 63 7.0 12.2 0.00 0.00 0.00 76 1010.1
20260502161054 80 66 6.1 11.3 0.00 0.00 0.00 77 1010.1
20260502160557 80 69 4.3 9.6 0.00 0.00 0.00 77 1010.2
20260502152058 80 81 4.3 9.6 0.00 0.00 0.00 78 1010.7
20260502151614 80 49 5.2 10.4 0.00 0.00 0.00 78 1010.8
20260502151058 80 63 5.2 11.3 0.00 0.00 0.00 78 1010.8
20260502150555 80 78 7.8 11.3 0.00 0.00 0.00 77 1010.9
20260502140103 81 53 6.1 11.3 0.00 0.00 0.00 77 1011.6
20260502130602 81 49 6.1 11.3 0.00 0.00 0.00 76 1012.1
20260502123555 81 81 7.8 13.0 0.00 0.00 0.00 76 1012.0
20260502123057 81 73 5.2 13.9 0.00 0.00 0.00 76 1012.0
20260502122604 81 71 7.0 14.8 0.00 0.00 0.00 76 1012.0
20260502122057 81 51 8.7 14.8 0.00 0.00 0.00 75 1011.9
20260502121558 81 57 5.2 11.3 0.00 0.00 0.00 76 1012.0
20260502121103 81 51 7.0 12.2 0.00 0.00 0.00 76 1011.9
20260502120557 81 63 6.1 13.9 0.00 0.00 0.00 76 1011.9
20260502115558 81 46 7.0 13.9 0.00 0.00 0.00 76 1011.9
20260502115056 82 57 8.7 13.9 0.00 0.00 0.00 76 1011.8
20260502114556 82 66 7.0 13.0 0.00 0.00 0.00 76 1011.9
20260502114056 82 73 7.0 12.2 0.00 0.00 0.00 75 1011.9
20260502113556 82 60 7.0 12.2 0.00 0.00 0.00 76 1011.8
20260502113113 82 80 5.2 14.8 0.00 0.00 0.00 76 1011.7
20260502112555 82 86 6.1 14.8 0.00 0.00 0.00 76 1011.7
20260502112055 82 78 7.0 12.2 0.00 0.00 0.00 76 1011.5
20260502111602 82 83 7.0 13.9 0.00 0.00 0.00 77 1011.6
20260502111059 82 59 7.8 13.9 0.00 0.00 0.00 77 1011.5
20260502110559 82 65 7.8 13.9 0.00 0.00 0.00 77 1011.4
20260502110057 82 69 7.0 12.2 0.00 0.00 0.00 76 1011.5
20260502105559 82 46 6.1 13.0 0.00 0.00 0.00 76 1011.4
20260502105055 82 46 8.7 13.0 0.00 0.00 0.00 76 1011.3
20260502104608 82 50 7.8 13.0 0.00 0.00 0.00 76 1011.2
20260502104058 82 80 8.7 13.0 0.00 0.00 0.00 75 1011.2
20260502103556 82 50 8.7 13.9 0.00 0.00 0.00 75 1011.1
20260502103056 82 54 8.7 13.9 0.00 0.00 0.00 75 1011.1
20260502102558 82 83 7.0 13.9 0.00 0.00 0.00 76 1011.1
20260502102057 82 48 7.0 13.9 0.00 0.00 0.00 75 1011.0
20260502101609 82 72 7.8 13.9 0.00 0.00 0.00 75 1011.0
20260502101058 82 61 7.0 13.9 0.00 0.00 0.00 75 1011.0
20260502100559 82 49 8.7 13.9 0.00 0.00 0.00 75 1010.8
20260502091059 82 56 10.4 16.5 0.00 0.00 0.00 74 1010.2
20260502090556 83 54 8.7 15.6 0.00 0.00 0.00 75 1010.3
20260502090107 83 88 9.6 17.4 0.00 0.00 0.00 75 1010.1
20260502071058 85 65 7.8 15.6 0.00 0.00 0.00 68 1009.1
20260502070555 85 71 9.6 18.2 0.00 0.00 0.00 69 1009.0
20260502070122 85 49 12.2 18.2 0.00 0.00 0.00 69 1009.0
20260502065557 85 82 11.3 20.0 0.00 0.00 0.00 68 1009.0
20260502065100 86 99 11.3 20.0 0.00 0.00 0.00 67 1008.9
20260502064557 86 78 10.4 17.4 0.00 0.00 0.00 66 1008.8
20260502064056 86 90 8.7 17.4 0.00 0.00 0.00 65 1008.9
20260502063556 86 72 9.6 19.1 0.00 0.00 0.00 67 1008.9
20260502063123 86 68 12.2 20.0 0.00 0.00 0.00 66 1008.9
20260502062601 86 55 12.2 20.0 0.00 0.00 0.00 68 1009.0
20260502062056 86 74 12.2 20.0 0.00 0.00 0.00 67 1008.9
20260502061559 86 76 12.2 20.0 0.00 0.00 0.00 69 1008.9
20260502061058 86 74 11.3 20.0 0.00 0.00 0.00 68 1008.8
20260502060558 86 57 13.0 20.0 0.00 0.00 0.00 68 1008.8
20260502060058 86 69 11.3 20.0 0.00 0.00 0.00 67 1008.9
20260502055559 86 62 10.4 20.0 0.00 0.00 0.00 68 1008.9
20260502055059 86 82 14.8 20.9 0.00 0.00 0.00 67 1008.9
20260502054609 86 76 9.6 23.5 0.00 0.00 0.00 68 1008.9
20260502054059 86 65 13.9 23.5 0.00 0.00 0.00 68 1008.8
20260502053556 86 58 13.9 23.5 0.00 0.00 0.00 66 1008.8
20260502053059 87 67 10.4 19.1 0.00 0.00 0.00 66 1008.9
20260502052556 86 74 12.2 23.5 0.00 0.00 0.00 67 1008.9
20260502052057 86 82 13.9 23.5 0.00 0.00 0.00 68 1008.9
20260502051557 86 65 11.3 20.9 0.00 0.00 0.00 68 1008.9
20260502051056 87 44 10.4 20.9 0.00 0.00 0.00 66 1008.9
20260502050557 87 128 13.0 19.1 0.00 0.00 0.00 1008.9
20260502050057 87 80 11.3 20.0 0.00 0.00 0.00 66 1009.0
20260502045601 87 62 9.6 20.0 0.00 0.00 0.00 64 1009.0
20260502045056 87 87 12.2 22.6 0.00 0.00 0.00 66 1009.0
20260502044556 87 76 12.2 22.6 0.00 0.00 0.00 64 1008.8
20260502044058 87 76 13.0 20.9 0.00 0.00 0.00 66 1008.9
20260502043556 88 84 9.6 21.7 0.00 0.00 0.00 65 1008.9
20260502043111 88 80 8.7 21.7 0.00 0.00 0.00 65 1009.0
20260502042600 88 84 11.3 21.7 0.00 0.00 0.00 64 1009.0
20260502042058 88 101 9.6 21.7 0.00 0.00 0.00 63 1009.0
20260502041619 88 109 10.4 21.7 0.00 0.00 0.00 64 1009.1
20260502041101 87 76 11.3 20.9 0.00 0.00 0.00 63 1009.1
20260502040623 87 89 8.7 17.4 0.00 0.00 0.00 67 1009.1
20260502040100 87 115 12.2 19.1 0.00 0.00 0.00 67 1009.2
20260502035559 87 67 11.3 23.5 0.00 0.00 0.00 66 1009.2
20260502035056 87 78 12.2 23.5 0.00 0.00 0.00 67 1009.2
20260502034557 87 81 12.2 20.9 0.00 0.00 0.00 66 1009.4
20260502034056 87 77 12.2 20.9 0.00 0.00 0.00 66 1009.4
20260502033555 87 78 10.4 21.7 0.00 0.00 0.00 68 1009.5
20260502033057 87 88 12.2 21.7 0.00 0.00 0.00 68 1009.5
20260502032555 86 86 12.2 23.5 0.00 0.00 0.00 68 1009.5
20260502032058 86 101 13.0 23.5 0.00 0.00 0.00 67 1009.5
20260502031556 87 94 9.6 22.6 0.00 0.00 0.00 68 1009.5
20260502031102 86 67 15.6 22.6 0.00 0.00 0.00 67 1009.5
20260502030557 87 65 13.9 18.2 0.00 0.00 0.00 68 1009.5
20260502030117 87 43 10.4 20.0 0.00 0.00 0.00 68 1009.7
20260502025557 87 75 10.4 21.7 0.00 0.00 0.00 69 1009.7
20260502025057 87 121 12.2 21.7 0.00 0.00 0.00 67 1009.7
20260502024606 87 82 12.2 17.4 0.00 0.00 0.00 68 1009.8
20260502024056 87 71 7.0 18.2 0.00 0.00 0.00 69 1009.9
20260502023559 87 104 10.4 20.0 0.00 0.00 0.00 68 1009.9
20260502023132 86 71 11.3 20.0 0.00 0.00 0.00 69 1010.1
20260502022559 87 80 11.3 18.2 0.00 0.00 0.00 68 1010.1
20260502022056 86 72 9.6 20.9 0.00 0.00 0.00 70 1010.1
20260502021556 86 83 12.2 20.9 0.00 0.00 0.00 68 1010.2
20260502021055 87 90 9.6 17.4 0.00 0.00 0.00 68 1010.3
20260502020559 86 102 10.4 17.4 0.00 0.00 0.00 68 1010.3
20260502020104 86 60 10.4 20.0 0.00 0.00 0.00 69 1010.4
20260502015557 87 78 9.6 20.0 0.00 0.00 0.00 70 1010.5
20260502015057 87 97 12.2 20.0 0.00 0.00 0.00 68 1010.7
20260502014607 86 70 12.2 20.0 0.00 0.00 0.00 69 1010.7
20260502014058 87 68 10.4 19.1 0.00 0.00 0.00 69 1010.7
20260502013559 86 96 10.4 21.7 0.00 0.00 0.00 69 1010.7
20260502013103 87 67 11.3 21.7 0.00 0.00 0.00 68 1010.8
20260502012559 86 98 13.0 20.0 0.00 0.00 0.00 68 1010.8
20260502012059 87 84 13.0 20.0 0.00 0.00 0.00 68 1010.9
20260502011607 86 77 9.6 20.0 0.00 0.00 0.00 68 1010.9
20260502011055 86 81 13.0 19.1 0.00 0.00 0.00 69 1010.9
20260502010558 86 86 13.0 18.2 0.00 0.00 0.00 70 1010.9
20260502010057 86 70 11.3 18.2 0.00 0.00 0.00 69 1011.0
20260502005558 86 94 9.6 20.0 0.00 0.00 0.00 70 1011.1
20260502005101 86 80 13.0 20.0 0.00 0.00 0.00 69 1011.1
20260502004558 86 66 12.2 22.6 0.00 0.00 0.00 69 1011.1
20260502004058 86 67 12.2 22.6 0.00 0.00 0.00 69 1011.1
20260502003556 86 59 10.4 22.6 0.00 0.00 0.00 67 1011.2
20260502003057 86 79 13.0 20.0 0.00 0.00 0.00 67 1011.2
20260502002601 87 80 9.6 18.2 0.00 0.00 0.00 69 1011.1
20260502002059 86 84 12.2 18.2 0.00 0.00 0.00 68 1011.0
20260502001603 86 92 12.2 20.0 0.00 0.00 0.00 68 1011.1
20260502001059 86 93 10.4 23.5 0.00 0.00 0.00 69 1011.1
20260502000558 85 80 13.0 23.5 0.00 0.00 0.00 69 1011.2
20260502000109 86 88 12.2 23.5 0.00 0.00 0.00 68 1011.3
20260501235557 86 60 10.4 17.4 0.00 0.00 0.00 70 1011.3
20260501235102 86 80 10.4 18.2 0.00 0.00 0.00 70 1011.3
20260501234555 86 93 9.6 18.2 0.00 0.00 0.00 70 1011.3
20260501234058 85 82 11.3 17.4 0.00 0.00 0.00 70 1011.3
20260501233558 86 53 10.4 15.6 0.00 0.00 0.00 70 1011.5
20260501233117 86 88 7.8 15.6 0.00 0.00 0.00 69 1011.5
20260501232558 85 71 9.6 16.5 0.00 0.00 0.00 70 1011.6
20260501232058 85 52 9.6 17.4 0.00 0.00 0.00 71 1011.5
20260501231627 85 80 9.6 17.4 0.00 0.00 0.00 70 1011.6
20260501231058 85 96 9.6 20.0 0.00 0.00 0.00 70 1011.6
20260501230600 85 61 10.4 20.0 0.00 0.00 0.00 70 1011.6
20260501230118 85 55 11.3 16.5 0.00 0.00 0.00 71 1011.5
20260501225558 85 69 11.3 16.5 0.00 0.00 0.00 71 1011.5
20260501225058 85 86 7.0 18.2 0.00 0.00 0.00 72 1011.5
20260501224606 85 80 12.2 20.0 0.00 0.00 0.00 72 1011.4
20260501224057 84 85 10.4 20.0 0.00 0.00 0.00 73 1011.4
20260501223557 84 87 8.7 16.5 0.00 0.00 0.00 73 1011.6
20260501223059 84 73 8.7 16.5 0.00 0.00 0.00 74 1011.5
20260501222558 84 81 9.6 17.4 0.00 0.00 0.00 74 1011.5
20260501222058 84 89 10.4 17.4 0.00 0.00 0.00 75 1011.5
20260501221610 84 101 10.4 16.5 0.00 0.00 0.00 74 1011.4
20260501221058 84 76 9.6 13.9 0.00 0.00 0.00 74 1011.4
20260501220558 84 56 7.0 14.8 0.00 0.00 0.00 75 1011.3
20260501220105 84 66 7.8 14.8 0.00 0.00 0.00 75 1011.2
20260501215558 83 82 8.7 14.8 0.00 0.00 0.00 75 1011.2
20260501215058 83 61 6.1 14.8 0.00 0.00 0.00 76 1011.1
20260501214601 83 68 8.7 14.8 0.00 0.00 0.00 76 1011.0
20260501214057 83 76 7.8 14.8 0.00 0.00 0.00 77 1011.0
20260501213557 83 82 7.8 12.2 0.00 0.00 0.00 77 1011.1
20260501213101 83 86 6.1 14.8 0.00 0.00 0.00 78 1011.0
20260501212558 82 54 7.0 14.8 0.00 0.00 0.00 78 1011.0
20260501212058 82 52 6.1 14.8 0.00 0.00 0.00 79 1010.9
20260501211557 81 58 7.8 14.8 0.00 0.00 0.00 80 1010.9
20260501211058 82 81 6.1 12.2 0.00 0.00 0.00 80 1011.0
20260501210555 82 88 7.8 12.2 0.00 0.00 0.00 80 1011.0
20260501210100 81 73 6.1 10.4 0.00 0.00 0.00 80 1011.0
20260501205600 81 58 5.2 8.7 0.00 0.00 0.00 81 1011.0
20260501205056 81 47 4.3 9.6 0.00 0.00 0.00 81 1011.0
20260501204556 81 74 4.3 9.6 0.00 0.00 0.00 81 1010.9
20260501204056 81 89 4.3 10.4 0.00 0.00 0.00 81 1010.8
20260501203600 81 36 6.1 10.4 0.00 0.00 0.00 81 1010.8
20260501203058 81 63 5.2 12.2 0.00 0.00 0.00 81 1010.8
20260501202557 80 66 5.2 12.2 0.00 0.00 0.00 82 1010.6
20260501202059 80 72 5.2 11.3 0.00 0.00 0.00 82 1010.6
20260501201559 80 80 2.6 8.7 0.00 0.00 0.00 83 1010.6
20260501201058 80 78 3.5 7.8 0.00 0.00 0.00 83 1010.5
20260501200559 80 59 2.6 7.8 0.00 0.00 0.00 83 1010.4
20260501200056 80 60 3.5 8.7 0.00 0.00 0.00 83 1010.5
20260501195559 80 55 3.5 8.7 0.00 0.00 0.00 83 1010.5
20260501195100 80 46 3.5 7.8 0.00 0.00 0.00 83 1010.5